Overview Statistics Trail Chart Weather Telemetry Raw packets
 

This is the latest recevied weather packets stored in our database for station/object AA6HF. If no packets are shown the sender has not sent any weather packets the latest 10 day(s).

<< 96 97 98 99 100 101 102 >>
Time Temp. Humidity Pressure Rain* Wind** Luminosity Snow
1787964220 44.44° C 14% 1004 hPa 0 mm - - -
1787963921 44.44° C 14% 1004 hPa 0 mm - - -
1787963621 45° C 13% 1004 hPa 0 mm - - -
1787963321 45.56° C 13% 1003.9 hPa 0 mm - - -
1787963021 45.56° C 12% 1003.8 hPa 0 mm - - -
1787962721 45° C 12% 1003.8 hPa 0 mm - - -
1787962421 45.56° C 12% 1003.9 hPa 0 mm - - -
1787962121 45.56° C 12% 1003.8 hPa 0 mm - - -
1787961821 45.56° C 12% 1003.7 hPa 0 mm - - -
1787961521 45.56° C 12% 1003.6 hPa 0 mm - - -
1787961221 45.56° C 12% 1003.6 hPa 0 mm - - -
1787960921 45° C 13% 1003.4 hPa 0 mm - - -
1787960621 45.56° C 13% 1003.5 hPa 0 mm - - -
1787960321 45.56° C 13% 1003.4 hPa 0 mm - - -
1787960021 46.11° C 12% 1003.4 hPa 0 mm - - -
1787959721 46.11° C 12% 1003.5 hPa 0 mm - - -
1787959421 46.11° C 14% 1003.5 hPa 0 mm - - -
1787959121 46.11° C 14% 1003.6 hPa 0 mm - - -
1787958821 46.11° C 14% 1003.6 hPa 0 mm - - -
1787958521 46.67° C 14% 1003.6 hPa 0 mm - - -
1787958221 46.11° C 14% 1003.7 hPa 0 mm - - -
1787957921 45.56° C 15% 1003.7 hPa 0 mm - - -
1787957621 45.56° C 16% 1003.8 hPa 0 mm - - -
1787957321 45.56° C 16% 1003.8 hPa 0 mm - - -
1787957021 46.67° C 15% 1004 hPa 0 mm - - -

* Rain latest hour (hover to see other rain measurements)
** Current wind speed in m/s (hover to see current wind gust speed)